Location: Moulis
(42.9609°N, 1.0909°E)
Time: 17:40:30
(UTC+00:00)

Cosmos 773 Rocket - Pass Details

Date: 11 December 2025
Orbit: 740 x 773 km, 74.1° (Epoch: 22 January)

Event Time Altitude Azimuth Distance (km) Brightness Sun altitude
Rises 16:57:38 0° 338° (NNW) 3,224 7.2 -6.7°
Reaches altitude 10° 17:00:00 10° 336° (NNW) 2,300 6.5 -7.1°
Maximum altitude 17:05:13 75° 253° (WSW) 796 4.3 -8.0°
Drops below altitude 10° 17:10:26 10° 168° (SSE) 2,303 6.6 -8.8°
Sets 17:12:48 0° 167° (SSE) 3,228 7.4 -9.2°
